This demonstration page uses our WeatherBlox Daily Observations layout. Learn more.

Left ArrowRight Arrow

30.21309, -93.2044

Hourly Observations for June 2, 2019

Temp ( °F °C ) Dew Point ( °F °C ) Humidity (%) Winds ( mph kmh ) Pressure ( in mb ) Visibility ( mi km ) Precip ( " mm )
12:15 am 00:15 Clear 80 26.5 75 23.9 86 86 N 8 13 29.91 1013 10 16 0.00 0.00
12:35 am 00:35 Clear 78 25.7 75 23.8 89 89 N 8 13 29.92 1013 10 16 0.00 0.00
12:55 am 00:55 Clear 77 24.9 74 23.4 91 91 Calm 29.92 1013 10 16 0.00 0.00
1:15 am 01:15 Clear 79 26.1 75 23.8 87 87 NNW 5 7 29.92 1013 10 16 0.00 0.00
1:35 am 01:35 Clear 78 25.3 74 23.6 90 90 NNW 3 6 29.91 1013 10 16 0.00 0.00
1:55 am 01:55 Clear 77 25 74 23.6 92 92 Calm 29.91 1013 7 11 0.00 0.00
2:15 am 02:15 Clear 77 24.8 74 23.5 93 93 N 3 6 29.91 1013 7 11 0.00 0.00
2:35 am 02:35 Clear 76 24.4 74 23.3 94 94 Calm 29.91 1013 7 11 0.00 0.00
2:55 am 02:55 Clear 76 24.5 74 23.1 92 92 Calm 29.91 1013 7 11 0.00 0.00
3:15 am 03:15 Clear 76 24.5 73 23 91 91 NNW 3 6 29.90 1013 7 11 0.00 0.00
3:35 am 03:35 Clear 76 24.6 74 23.1 91 91 Calm 29.89 1012 7 11 0.00 0.00
3:55 am 03:55 Clear 75 24.1 74 23.1 94 94 N 3 6 29.89 1012 7 11 0.00 0.00
4:15 am 04:15 Clear 75 24 73 23 94 94 NNW 5 7 29.90 1013 7 11 0.00 0.00
4:35 am 04:35 Clear 75 24.1 73 22.9 93 93 NNW 6 9 29.89 1012 7 11 0.00 0.00
4:55 am 04:55 Clear 75 24 73 22.7 92 92 Calm 29.89 1012 10 16 0.00 0.00
5:15 am 05:15 Clear 74 23.6 73 22.6 94 94 Calm 29.90 1013 7 11 0.00 0.00
5:35 am 05:35 Clear 75 23.7 72 22.4 92 92 N 3 6 29.91 1013 7 11 0.00 0.00
6:00 am 06:00 Mostly Clear 73 23 72 22 94 94 Calm 29.92 1013 10 16 0.00 0.00
6:45 am 06:45 Mostly Sunny 75 24 73 23 94 94 Calm 29.92 1013 10 16 0.00 0.00
7:50 am 07:50 Mostly Sunny 77 25 73 23 89 89 Calm 29.94 1014 10 16 0.00 0.00
8:45 am 08:45 Mostly Sunny 82 28 75 24 79 79 VRB 3 6 29.94 1014 10 16 0.00 0.00
9:45 am 09:45 Mostly Sunny 84 29 75 24 74 74 VRB 7 11 29.95 1014 10 16 0.00 0.00
10:45 am 10:45 Mostly Sunny 86 30 75 24 70 70 VRB 7 11 29.96 1015 10 16 0.00 0.00
11:55 am 11:55 Mostly Sunny 86 30 75 24 70 70 Calm 29.96 1015 10 16 0.00 0.00
12:50 pm 12:50 Mostly Cloudy 90 32 72 22 55 55 VRB 3 6 29.96 1015 10 16 0.00 0.00
1:55 pm 13:55 Partly Cloudy 91 33 70 21 49 49 Calm 29.94 1014 10 16 0.00 0.00
2:50 pm 14:50 Mostly Cloudy 91 33 70 21 49 49 S 3 6 29.91 1013 10 16 0.00 0.00
3:50 pm 15:50 Mostly Cloudy 90 32 72 22 55 55 ESE 6 9 29.89 1012 10 16 0.00 0.00
5:50 pm 17:50 Mostly Cloudy 82 28 72 22 70 70 SSE 9 15 29.90 1013 10 16 0.00 0.00
6:50 pm 18:50 Mostly Cloudy with Thunderstorms 81 27 72 22 74 74 N 23 37 29.92 1013 10 16 0.00 0.00
7:50 pm 19:50 Mostly Cloudy with Light Rain 75 24 73 23 94 94 SW 5 7 29.89 1012 10 16 0.00 0.00
8:55 pm 20:55 Mostly Clear 75 24 73 23 94 94 VRB 7 11 29.92 1013 10 16 0.00 0.00
9:50 pm 21:50 Mostly Clear 73 23 72 22 94 94 Calm 29.91 1013 10 16 0.00 0.00
10:15 pm 22:15 Clear 75 23.7 73 22.6 94 94 Calm 29.92 1013 10 16 0.00 0.00
10:35 pm 22:35 Clear 74 23.3 73 22.5 95 95 Calm 29.92 1013 10 16 0.00 0.00
10:55 pm 22:55 Clear 74 23.1 72 22.3 95 95 Calm 29.93 1014 10 16 0.00 0.00
11:15 pm 23:15 Clear 73 23 72 22.2 95 95 NNE 10 17 29.92 1013 10 16 0.00 0.00
11:35 pm 23:35 Clear 73 22.9 72 22.2 96 96 N 7 11 29.93 1014 10 16 0.00 0.00
11:55 pm 23:55 Clear 73 22.9 72 22.1 95 95 NNE 10 17 29.94 1014 10 16 0.00 0.00

Powered by AerisWeather